Wind_Speed
16 15 16 15 15 14 14 12 13 14 15 16 16 18 21 22 23 23 24 24 24 24 24 23 23 24 25 26 26 26 25 25 25 26 25 24 24 24 24 25 25 24 24
15 14 14 14 15 15 14 13 14 15 16 18 19 21 22 23 24 24 24 24 24 24 24 24 24 25 26 27 27 27 27 27 27 27 27 27 26 25 26 25 26 26 25
16 15 14 15 15 16 15 16 16 17 18 19 21 22 22 23 25 24 25 25 25 25 25 25 26 26 27 28 28 28 28 28 28 29 29 29 28 28 27 27 27 26 26
15 15 15 15 16 17 17 18 18 19 19 20 21 23 23 24 25 25 25 25 26 26 26 26 27 27 28 29 29 29 29 29 29 30 30 30 30 29 28 29 29 28 28
15 16 16 16 17 18 18 19 19 20 21 22 23 24 24 25 25 25 25 26 27 27 27 27 28 28 29 29 30 30 30 29 29 30 31 31 31 30 29 29 28 28 28
16 16 16 17 17 18 19 20 21 21 22 23 24 25 25 26 26 26 26 26 27 27 28 28 28 28 29 29 29 29 30 30 30 30 30 30 30 30 29 29 29 28 28
17 17 17 18 19 19 20 21 22 23 24 24 25 25 26 26 26 27 27 27 27 28 28 28 28 28 29 29 29 29 30 29 29 29 29 29 30 30 29 29 28 28 28
17 17 18 19 20 21 21 22 23 24 25 25 25 26 26 27 27 27 27 27 27 27 28 28 28 28 28 28 29 29 29 29 29 28 28 28 28 29 29 29 28 29 28
17 17 19 20 20 22 23 24 25 26 26 27 27 27 27 27 27 27 27 27 27 27 27 27 27 27 28 28 27 28 28 28 27 28 28 28 28 28 28 28 28 28 28
16 18 20 21 22 23 24 26 27 27 28 28 28 28 28 28 28 28 28 28 27 27 27 27 27 27 27 27 26 27 27 27 26 26 26 26 27 27 27 27 27 28 27
18 19 21 22 23 24 25 27 28 28 28 28 29 28 28 28 28 28 28 28 27 27 27 27 27 26 25 26 26 25 25 25 25 25 25 25 25 25 25 26 27 26 27
20 22 23 24 25 26 27 28 28 29 29 30 30 30 29 29 29 28 28 27 26 26 26 26 25 25 25 25 25 24 23 23 23 22 22 22 23 23 24 24 24 25 26
22 23 25 25 26 27 28 29 29 29 29 30 30 30 29 29 29 28 27 27 26 26 25 25 24 23 24 23 23 22 21 21 20 20 20 20 20 21 21 22 23 24 24
24 25 25 26 27 28 28 29 29 29 29 29 28 28 28 27 27 27 26 26 25 25 24 23 22 21 21 21 21 20 19 18 18 18 17 17 18 19 19 19 19 20 20
25 26 26 27 27 28 28 28 28 28 28 28 27 26 26 26 25 25 24 23 23 22 21 20 19 19 19 19 18 17 16 16 15 15 15 15 15 15 15 14 15 15 16
27 27 27 27 27 27 28 28 27 27 27 26 25 25 25 24 23 23 23 22 21 20 19 18 18 17 16 16 15 15 15 14 14 14 14 13 13 13 12 12 12 13 13
27 27 27 27 27 27 27 26 25 25 24 24 23 23 22 22 22 21 21 20 19 18 17 16 15 15 14 13 13 12 12 12 12 12 11 11 12 12 11 11 12 12 12
27 27 27 27 26 26 25 24 23 23 22 21 20 20 19 18 18 18 17 16 16 16 15 15 14 13 11 11 10 10 11 10 9 9 9 9 9 9 10 10 11 11 11
26 26 26 25 24 23 23 22 21 20 19 18 17 16 15 14 13 12 12 12 12 12 12 12 11 10 10 9 9 9 8 8 7 7 7 6 7 7 9 9 9 9 10
25 24 24 22 22 21 20 19 18 17 16 15 14 13 11 10 8 8 8 8 8 8 9 10 10 10 9 9 8 8 7 6 6 6 7 6 7 7 7 7 7 8 8
22 22 21 20 19 18 17 16 15 14 13 12 10 9 7 5 5 5 5 6 6 7 8 8 9 9 8 8 7 7 7 6 6 5 5 5 5 5 5 6 6 6 7
20 20 18 17 16 15 13 12 10 10 9 8 6 5 4 3 3 3 4 5 6 7 7 7 7 7 7 7 7 7 7 6 5 4 4 4 4 4 4 4 4 4 4
17 16 13 12 12 11 9 7 6 6 5 4 3 3 3 3 4 4 4 5 6 7 7 7 6 5 5 6 6 5 5 5 4 3 3 3 3 3 3 2 1 1 1
14 12 10 10 9 8 6 4 4 3 1 0 2 3 4 5 5 5 6 6 6 6 6 5 5 5 6 5 5 5 4 4 3 3 3 3 4 3 3 2 2 1 1
11 10 8 8 6 5 4 3 2 1 2 3 4 5 6 6 6 6 6 6 6 6 6 6 6 7 7 7 6 6 5 5 5 5 5 5 5 5 5 4 4 4 4
9 8 8 6 5 4 4 4 4 4 5 6 7 7 7 7 7 8 8 7 7 7 7 7 8 8 8 8 7 6 6 7 7 8 8 8 7 7 7 7 7 7 7
Wind_Direction
284 284 288 290 289 283 277 276 283 283 282 278 274 272 271 271 271 270 269 271 271 269 268 266 264 264 265 265 265 265 266 265 265 266 264 264 264 264 262 259 258 259 261
285 289 288 289 288 286 285 281 282 283 283 282 276 274 273 273 274 274 273 273 272 270 270 269 267 265 265 265 264 264 263 262 264 264 262 262 264 264 262 260 259 259 259
289 292 291 288 289 289 286 284 285 284 283 283 280 277 276 275 276 276 275 275 274 273 273 271 270 267 265 264 263 264 264 263 263 264 263 262 264 263 261 260 258 257 257
286 285 284 284 287 287 287 287 286 285 284 283 281 278 276 275 276 276 277 276 274 273 273 272 271 268 265 264 264 264 265 263 262 263 262 262 263 262 261 260 259 257 257
284 281 280 281 284 285 286 285 285 286 285 284 283 281 278 276 275 276 276 276 276 274 274 273 273 270 267 266 265 264 265 263 262 263 263 263 262 262 261 259 257 256 258
282 282 282 283 285 285 285 285 285 286 287 286 285 282 278 276 275 275 275 275 275 275 274 272 272 271 268 267 266 265 265 264 263 264 264 262 263 261 260 258 257 255 256
281 282 282 285 287 287 287 287 287 287 286 286 285 283 279 277 276 276 275 274 274 274 274 273 271 270 268 267 266 266 266 265 264 264 264 263 261 260 259 257 257 257 257
273 280 282 284 286 287 289 290 290 289 288 287 286 284 281 279 277 276 275 274 275 275 273 272 270 269 268 268 267 267 266 265 263 262 262 261 260 258 257 255 256 258 257
275 281 283 284 285 287 288 289 289 289 288 287 285 283 281 279 277 276 275 275 276 274 272 270 270 269 269 269 268 268 267 265 264 262 261 261 261 258 255 254 254 256 257
282 284 283 284 286 287 288 289 289 289 288 287 285 282 280 278 276 275 275 275 274 273 271 271 270 269 269 269 269 269 268 265 264 262 261 261 261 258 255 254 254 256 257
283 285 289 290 289 288 289 290 290 289 288 286 284 281 279 276 276 275 275 275 273 272 271 271 270 270 269 270 270 270 268 264 261 260 259 259 257 256 254 253 253 254 255
290 291 292 292 291 290 290 290 289 288 287 285 282 280 278 276 276 275 274 273 273 271 271 271 270 269 270 270 269 269 267 265 261 260 259 258 256 253 251 250 250 251 253
296 297 297 295 293 291 291 290 289 289 289 286 283 281 279 277 275 274 273 272 272 271 271 269 268 269 271 270 266 265 265 263 259 259 256 254 256 254 251 250 250 250 252
301 300 300 298 295 293 292 291 290 290 290 288 284 281 278 276 274 272 270 270 270 269 268 265 265 267 268 267 264 261 260 260 258 255 252 251 253 253 254 254 252 250 250
301 300 300 299 297 294 293 292 291 290 289 287 285 283 279 275 273 269 267 268 266 265 265 263 263 264 264 262 258 255 255 254 252 251 249 250 250 250 252 253 252 249 251
301 300 299 297 296 295 293 292 291 290 288 286 283 283 279 274 271 269 267 266 264 261 261 260 259 259 259 257 253 251 252 252 252 251 249 248 247 245 246 247 248 250 251
301 300 299 298 297 295 294 292 291 290 289 286 284 282 279 273 271 269 265 262 260 258 255 253 250 251 252 252 248 248 249 247 253 253 248 243 240 243 244 244 246 250 251
302 300 300 299 297 295 293 291 289 289 288 285 284 282 279 275 271 266 262 258 253 249 245 242 240 240 240 238 236 240 240 245 251 249 240 238 239 239 239 239 243 246 251
302 302 302 300 298 296 294 291 288 288 287 284 283 283 282 276 269 261 255 249 243 238 230 229 230 229 227 226 231 229 231 238 241 235 232 232 229 232 234 241 243 247 253
303 303 302 301 300 299 298 295 290 287 286 284 281 280 280 274 264 254 248 235 227 223 219 222 219 214 216 218 223 221 224 228 227 227 226 229 230 233 236 238 244 251 257
306 305 304 302 302 304 302 298 292 288 287 285 278 274 271 264 252 250 239 220 214 210 207 208 205 206 208 210 216 218 214 213 219 225 231 233 234 234 236 238 248 258 264
310 309 307 305 306 306 304 299 294 292 289 284 274 263 249 241 220 212 199 186 185 189 187 186 190 197 202 206 207 205 203 207 213 218 232 235 230 228 230 239 250 256 261
319 317 314 313 314 314 308 304 303 299 292 280 257 238 213 193 173 166 161 159 161 167 171 177 181 186 188 187 185 182 186 191 194 200 206 212 208 202 197 198 210 233 268
329 329 327 326 327 325 319 314 314 316 317 175 152 143 151 153 152 152 152 151 147 151 156 162 164 166 167 164 160 159 161 160 153 149 153 154 147 136 126 119 108 90 64
341 344 343 343 344 342 347 357 7 35 93 115 129 128 129 133 137 137 137 135 132 133 141 145 147 147 146 146 147 145 141 137 135 132 123 119 117 115 110 102 97 93 84
356 359 360 5 12 26 41 52 60 86 102 112 121 122 119 123 127 126 128 128 126 128 132 135 137 136 134 132 133 130 126 124 121 116 109 106 105 105 101 98 95 91 86
Height
5840 5839 5841 5841 5840 5840 5839 5839 5841 5842 5842 5841 5841 5841 5842 5841 5841 5841 5841 5841 5841 5841 5841 5841 5841 5841 5841 5841 5842 5842 5843 5843 5843 5844 5844 5845 5845 5846 5846 5847 5848 5849 5850
5837 5836 5837 5837 5837 5837 5836 5836 5838 5838 5838 5838 5837 5837 5837 5836 5835 5835 5835 5834 5834 5835 5835 5835 5835 5835 5835 5835 5835 5835 5836 5837 5837 5838 5838 5838 5840 5839 5840 5841 5842 5843 5844
5836 5834 5834 5833 5833 5833 5833 5833 5833 5833 5833 5833 5832 5832 5831 5831 5830 5829 5829 5828 5828 5828 5828 5828 5828 5828 5828 5828 5828 5829 5829 5830 5830 5831 5831 5831 5832 5833 5834 5835 5836 5837 5838
5832 5832 5831 5830 5829 5829 5829 5828 5828 5828 5827 5827 5826 5826 5825 5824 5824 5823 5822 5822 5821 5821 5821 5821 5821 5821 5821 5821 5821 5822 5822 5822 5823 5823 5823 5824 5825 5826 5827 5828 5829 5830 5831
5828 5828 5827 5827 5826 5825 5824 5824 5823 5822 5822 5821 5820 5819 5819 5818 5817 5817 5816 5815 5815 5814 5814 5814 5814 5814 5814 5814 5814 5814 5814 5815 5815 5815 5816 5816 5817 5818 5820 5820 5821 5823 5824
5823 5823 5823 5822 5821 5820 5819 5818 5818 5817 5815 5814 5814 5813 5812 5811 5811 5810 5809 5808 5808 5807 5807 5806 5806 5806 5806 5807 5807 5807 5807 5807 5807 5808 5808 5809 5809 5811 5812 5813 5814 5815 5817
5819 5818 5818 5817 5816 5815 5814 5813 5811 5810 5809 5808 5807 5806 5804 5804 5803 5802 5802 5801 5800 5800 5799 5799 5798 5798 5798 5798 5799 5799 5799 5799 5800 5800 5800 5801 5802 5803 5804 5805 5806 5807 5809
5814 5813 5813 5811 5810 5809 5808 5806 5805 5804 5802 5801 5800 5798 5797 5796 5795 5794 5794 5793 5793 5792 5792 5791 5791 5791 5791 5791 5791 5791 5791 5792 5792 5792 5792 5793 5794 5795 5796 5798 5799 5800 5801
5809 5808 5807 5806 5804 5803 5802 5800 5798 5797 5795 5794 5792 5790 5789 5788 5787 5786 5786 5785 5785 5784 5784 5784 5783 5783 5783 5783 5783 5783 5783 5783 5784 5784 5785 5786 5786 5788 5789 5790 5792 5793 5794
5804 5803 5802 5800 5798 5797 5795 5793 5791 5789 5787 5786 5784 5783 5781 5780 5779 5779 5778 5777 5777 5776 5776 5776 5776 5775 5775 5775 5775 5775 5775 5775 5776 5777 5778 5778 5779 5780 5781 5782 5784 5785 5787
5799 5798 5796 5794 5791 5789 5787 5785 5783 5781 5779 5777 5776 5775 5773 5772 5771 5770 5770 5769 5769 5768 5768 5768 5768 5768 5767 5767 5767 5767 5768 5768 5769 5770 5770 5771 5772 5772 5774 5775 5776 5778 5779
5793 5790 5788 5786 5784 5781 5779 5777 5774 5772 5770 5768 5767 5765 5764 5763 5762 5762 5761 5761 5760 5760 5760 5760 5760 5760 5760 5760 5760 5760 5761 5761 5762 5762 5763 5764 5765 5766 5767 5768 5769 5770 5772
5785 5783 5780 5778 5775 5772 5770 5768 5766 5763 5761 5759 5757 5756 5755 5754 5753 5753 5752 5752 5752 5752 5752 5752 5753 5753 5753 5753 5753 5753 5754 5754 5755 5756 5757 5758 5759 5759 5760 5761 5763 5764 5765
5778 5776 5773 5770 5767 5764 5762 5759 5757 5754 5752 5750 5748 5746 5745 5745 5744 5744 5743 5744 5744 5744 5745 5745 5746 5746 5746 5746 5747 5747 5748 5749 5749 5750 5751 5752 5753 5754 5755 5756 5757 5758 5759
5771 5769 5766 5763 5759 5756 5754 5751 5748 5746 5743 5741 5740 5738 5737 5736 5735 5735 5735 5735 5736 5737 5738 5738 5739 5740 5740 5740 5741 5742 5743 5744 5744 5745 5746 5747 5748 5749 5750 5751 5752 5753 5754
5765 5762 5758 5755 5752 5749 5746 5743 5740 5738 5735 5733 5732 5730 5729 5728 5728 5728 5728 5729 5729 5730 5731 5732 5733 5734 5735 5735 5736 5737 5738 5739 5739 5740 5741 5742 5743 5744 5745 5746 5747 5748 5749
5757 5754 5750 5747 5743 5740 5737 5735 5732 5730 5728 5727 5725 5723 5722 5722 5721 5721 5722 5722 5723 5724 5726 5727 5728 5729 5730 5731 5732 5733 5734 5735 5735 5736 5737 5738 5739 5740 5741 5742 5743 5744 5745
5749 5745 5742 5738 5735 5732 5729 5727 5725 5724 5722 5720 5718 5717 5716 5716 5715 5715 5716 5717 5718 5719 5721 5723 5724 5725 5726 5727 5729 5730 5731 5731 5732 5733 5734 5735 5736 5737 5738 5739 5740 5741 5741
5741 5738 5734 5731 5728 5725 5723 5720 5719 5717 5715 5714 5713 5712 5711 5711 5710 5710 5711 5712 5714 5715 5717 5719 5720 5722 5723 5725 5726 5727 5728 5729 5730 5731 5731 5732 5733 5734 5735 5736 5737 5737 5738
5734 5731 5727 5724 5721 5719 5716 5714 5713 5711 5710 5709 5708 5708 5708 5707 5707 5707 5708 5709 5711 5712 5714 5716 5717 5719 5721 5722 5724 5725 5726 5727 5728 5728 5729 5730 5731 5732 5733 5734 5734 5735 5735
5728 5724 5721 5718 5716 5714 5711 5710 5708 5707 5706 5705 5705 5705 5705 5705 5705 5705 5706 5707 5709 5710 5712 5714 5715 5717 5719 5720 5722 5723 5724 5725 5726 5727 5727 5728 5729 5730 5730 5731 5732 5732 5732
5722 5719 5716 5713 5711 5709 5707 5706 5705 5704 5703 5702 5702 5702 5703 5703 5704 5704 5705 5706 5708 5709 5711 5713 5714 5716 5717 5719 5720 5721 5722 5723 5724 5725 5726 5726 5727 5728 5728 5729 5729 5730 5730
5717 5714 5712 5709 5708 5706 5704 5703 5702 5702 5701 5701 5701 5701 5702 5702 5703 5704 5705 5706 5708 5709 5711 5712 5714 5715 5717 5718 5719 5720 5721 5722 5723 5724 5724 5725 5726 5727 5727 5728 5728 5728 5729
5714 5711 5709 5707 5705 5704 5702 5702 5701 5701 5700 5700 5701 5701 5702 5703 5704 5705 5706 5707 5708 5709 5711 5712 5714 5715 5716 5718 5719 5720 5721 5722 5722 5723 5724 5725 5725 5726 5727 5727 5728 5728 5728
5712 5710 5708 5706 5704 5703 5702 5701 5701 5700 5700 5701 5701 5702 5702 5703 5705 5705 5706 5708 5709 5710 5712 5713 5714 5716 5717 5718 5720 5721 5722 5722 5723 5724 5725 5725 5726 5726 5727 5727 5728 5728 5728
5711 5709 5707 5706 5704 5703 5702 5702 5701 5701 5701 5701 5702 5703 5704 5705 5706 5707 5708 5709 5710 5711 5713 5714 5716 5717 5718 5719 5721 5721 5722 5723 5724 5725 5726 5726 5727 5727 5728 5728 5728 5729 5729